Temperature
5 5 5 6 6 5 5 5 6 7 8 7 7 8 10 10 10 11 11 11 11 11 11 11 11 12 12 12 13 13 13 13 13 13 13 13 13 13 13 13 13 13 12 12
6 5 6 6 6 5 5 5 6 7 8 7 7 8 10 10 10 10 10 11 10 10 11 10 11 11 11 12 12 13 13 13 13 13 13 13 13 13 13 13 13 12 12 12
5 6 6 5 5 5 5 5 6 6 7 7 7 8 9 11 10 10 10 10 10 10 10 10 11 11 11 11 12 12 13 13 13 13 13 13 13 13 13 13 13 12 12 12
5 6 5 5 5 5 5 6 6 5 5 6 6 6 9 10 10 10 10 10 9 9 9 10 10 10 11 11 12 12 12 13 13 13 13 13 13 12 12 13 12 12 12 12
5 5 5 4 5 5 5 6 5 5 5 5 6 6 8 9 8 9 9 9 9 9 9 9 9 10 10 11 11 12 12 12 12 12 12 12 12 12 12 12 12 12 12 12
5 5 5 5 5 5 5 5 6 6 5 5 7 6 8 8 7 8 8 8 8 8 8 9 9 9 10 10 11 11 11 12 12 12 12 12 12 12 12 12 12 12 12 12
5 5 5 5 4 5 5 4 5 5 5 6 8 7 7 7 7 7 7 7 7 7 7 8 8 9 9 10 10 10 11 11 12 12 12 12 12 12 12 12 12 12 12 12
3 4 5 4 4 4 4 4 4 4 5 7 7 7 7 6 6 6 6 6 6 6 6 6 7 8 9 9 10 10 11 11 11 12 12 12 12 12 12 12 12 12 12 12
3 3 4 4 4 4 4 4 4 3 4 5 6 7 7 6 6 6 6 5 5 5 5 6 6 7 8 9 9 10 10 11 11 11 12 12 12 12 12 12 12 12 12 12
2 2 4 4 4 4 4 4 3 3 3 5 6 6 5 5 5 5 5 5 5 4 4 5 5 6 7 8 8 9 10 10 11 11 11 11 12 12 12 12 12 12 12 12
1 1 3 3 3 3 3 3 3 3 3 3 4 5 5 4 4 4 4 4 4 4 4 4 4 5 6 7 8 9 9 10 10 11 11 11 12 12 12 12 12 12 12 12
1 1 2 3 3 3 2 2 2 2 2 3 3 4 5 4 4 4 4 3 3 3 3 3 3 4 5 6 7 8 9 9 10 10 11 11 11 11 11 12 12 12 12 12
1 1 1 3 3 2 1 2 1 1 2 2 3 4 5 4 4 4 3 3 3 3 3 3 3 3 4 5 6 7 8 9 9 10 10 11 11 11 11 12 12 12 12 12
2 1 1 2 3 2 1 1 1 1 2 2 3 4 4 4 4 3 3 3 2 2 2 2 2 2 3 4 5 6 7 8 9 9 10 10 11 11 11 12 12 12 12 12
1 1 1 2 2 2 1 1 1 1 1 2 3 3 4 3 3 3 2 2 2 2 2 2 2 2 2 3 4 5 6 7 8 9 9 10 10 11 11 11 11 11 11 12
0 0 1 1 2 2 2 2 2 2 2 2 2 3 3 3 3 2 2 2 2 2 1 1 1 1 2 2 3 4 6 7 7 8 9 9 10 10 11 11 11 11 11 11
-0 -1 -0 1 2 1 1 2 2 2 2 2 2 3 3 3 3 2 2 1 1 1 1 1 1 1 1 2 3 4 5 6 7 7 8 9 9 10 11 11 11 11 11 11
-1 -1 -1 0 1 -0 3 3 2 2 2 2 2 2 3 2 2 2 1 1 1 1 1 0 0 1 1 2 2 3 4 5 6 7 7 8 9 9 10 10 10 11 11 11
-0 -1 -0 -0 0 1 3 3 2 1 1 2 2 2 2 2 2 2 2 1 1 0 0 0 0 1 1 2 2 3 4 5 6 6 7 8 8 9 9 10 10 10 10 10
-1 -1 -1 -1 -1 0 3 3 2 1 1 2 2 2 2 1 2 3 1 0 0 0 -0 0 0 1 1 2 2 3 4 4 5 6 7 7 8 8 9 9 10 10 10 10
-2 -2 -2 -1 -1 1 3 2 1 1 2 2 1 1 1 1 1 1 -0 -0 -0 -0 -0 -0 0 0 1 1 2 2 3 4 4 5 6 7 8 8 9 9 9 9 9 9
-1 -1 -2 -1 -1 0 2 1 1 2 2 1 1 1 0 0 -0 -0 -1 -1 -1 -1 -1 -0 -0 0 1 1 1 2 3 4 4 5 6 6 7 8 8 9 9 9 9 9
-0 0 1 0 1 3 1 1 1 0 0 0 0 -0 -0 -1 -1 -1 -1 -1 -1 -1 -1 -1 -0 0 1 1 1 2 2 3 4 4 5 6 7 7 8 8 8 8 8 9
0 -0 -1 -1 1 1 0 0 -0 -0 -0 -1 -1 -1 -1 -1 -1 -1 -1 -1 -1 -1 -1 -1 -1 -0 0 1 1 2 2 3 3 4 4 5 6 6 7 7 8 8 8 8
1 -1 -1 -1 1 1 0 -0 -0 -1 -1 -1 -2 -2 -2 -2 -2 -2 -2 -2 -2 -2 -1 -1 -1 -1 -0 0 1 2 2 3 3 3 4 4 5 6 6 7 7 7 8 8
0 -0 -1 0 1 0 1 -0 -1 -1 -2 -2 -2 -2 -2 -3 -3 -2 -2 -2 -2 -2 -2 -2 -2 -1 -1 -0 1 1 2 2 2 3 3 4 4 5 5 6 6 7 7 8
Wind_Speed
3 4 7 10 11 14 16 18 21 22 18 17 20 24 23 20 18 20 20 19 18 18 17 15 15 14 15 17 18 19 20 20 17 14 14 14 13 14 13 13 17 19 19 19
4 7 9 10 12 13 16 18 20 19 15 16 20 24 22 19 18 17 18 17 16 15 14 13 13 13 13 15 17 19 20 20 19 16 15 14 13 12 13 13 15 19 19 19
8 8 8 10 12 13 15 15 17 19 21 15 16 17 16 13 12 13 14 14 14 14 14 13 12 12 12 13 15 16 19 20 20 18 14 13 11 10 11 14 14 17 19 19
7 6 8 10 11 11 14 12 16 18 16 11 9 11 13 11 10 10 10 10 10 11 12 12 11 12 12 12 12 15 17 19 19 19 17 18 15 14 13 14 14 17 19 19
7 8 10 10 11 11 10 15 17 17 15 14 12 10 10 8 10 10 9 8 8 8 9 10 10 10 10 10 10 12 15 17 19 19 20 20 18 15 12 14 17 17 17 18
9 7 6 7 11 10 11 13 14 11 8 8 9 8 8 6 9 10 9 8 8 7 7 8 8 8 7 7 8 10 14 16 18 20 21 21 21 18 17 17 17 16 14 15
7 4 3 5 8 6 7 8 5 3 4 6 5 6 5 8 10 10 9 9 9 8 7 6 7 7 6 6 7 9 12 14 16 18 20 21 21 20 20 19 18 17 14 14
7 7 4 4 6 7 7 5 5 6 6 9 7 6 3 7 9 10 9 9 10 10 8 7 6 6 6 6 6 8 11 12 14 16 18 19 20 17 16 19 17 18 15 16
5 7 6 7 6 5 5 4 5 6 9 8 6 5 4 8 11 12 13 12 12 12 11 9 7 7 6 6 6 8 10 11 13 15 16 17 18 18 17 18 18 16 16 15
4 8 8 5 5 3 5 5 4 4 5 7 7 6 7 12 14 14 15 14 13 12 12 11 9 8 7 7 6 6 8 10 12 14 14 14 17 18 17 16 18 18 18 17
4 6 7 5 3 6 4 3 4 5 5 6 7 5 5 8 12 13 14 14 13 13 12 11 10 9 8 7 6 4 5 7 9 11 13 14 15 17 17 17 18 17 17 18
4 5 8 8 6 5 5 5 4 5 6 7 7 6 3 8 11 12 14 14 14 12 11 11 11 10 8 7 6 4 4 5 8 10 11 13 14 15 17 18 18 17 17 17
3 4 6 5 3 2 4 5 6 7 7 8 8 7 5 10 12 13 14 14 13 13 12 11 11 11 10 8 7 5 4 5 6 8 10 11 13 15 16 18 18 18 17 17
4 6 8 11 10 8 9 11 10 8 7 10 12 15 14 14 15 15 15 14 13 12 12 12 11 11 11 9 8 7 6 5 6 7 9 10 12 14 15 16 17 17 17 17
4 8 11 16 17 16 17 17 14 12 13 12 14 16 15 14 15 14 14 13 13 12 12 13 13 12 11 11 10 8 7 6 5 6 8 9 10 12 13 14 15 15 16 16
4 7 9 14 14 15 18 18 16 15 14 15 17 16 13 14 13 12 12 12 12 13 13 13 13 13 12 11 10 9 8 7 6 6 7 8 9 9 11 13 13 14 15 16
5 5 6 10 10 12 13 12 12 11 11 11 13 12 13 13 13 12 11 11 11 13 13 13 13 13 13 11 10 10 9 7 6 6 6 7 8 9 10 10 13 13 14 15
8 7 5 7 8 10 6 3 7 10 12 11 11 11 12 13 13 12 9 10 12 12 12 13 12 13 13 12 11 9 8 7 6 5 5 6 7 8 9 10 12 12 12 13
13 9 6 5 8 12 10 7 6 8 10 10 10 11 12 11 11 8 7 9 10 11 11 11 12 12 12 12 11 10 9 8 6 5 5 4 6 8 8 10 11 10 10 11
11 11 8 7 8 8 6 3 2 4 8 6 7 9 10 9 8 8 9 11 12 12 11 11 12 12 11 11 10 10 8 8 7 6 6 5 5 7 9 10 10 9 10 10
7 8 12 13 11 11 7 3 4 6 5 2 5 7 8 7 9 11 13 13 12 13 12 11 11 10 11 11 10 9 8 8 8 7 6 5 5 6 8 8 9 9 8 9
10 8 10 9 10 11 4 6 7 7 4 5 7 8 9 10 11 12 12 12 12 12 12 11 11 11 10 10 9 9 9 8 8 7 6 4 4 4 5 6 7 8 8 9
11 10 7 10 10 6 5 8 8 7 8 8 8 9 10 11 12 12 12 12 12 12 12 11 11 11 10 9 9 10 10 8 7 6 5 4 3 4 5 6 7 7 8 7
8 8 8 9 13 13 12 12 11 10 11 11 10 10 11 12 12 12 12 11 11 12 11 11 11 11 11 10 9 9 9 8 7 6 5 3 3 2 3 4 5 6 7 8
10 8 9 14 15 14 14 13 12 11 10 10 10 10 10 11 12 12 12 12 11 11 11 10 10 11 12 11 10 10 9 7 6 5 4 3 2 2 2 2 3 5 5 7
12 13 12 13 12 11 11 10 10 11 11 11 11 11 10 10 12 12 12 11 11 11 10 10 10 11 12 11 11 10 9 7 6 4 4 3 2 2 2 2 1 1 2 5
Wind_Direction
294 268 273 286 282 282 289 287 288 288 290 290 280 279 280 283 275 268 263 260 253 249 251 250 245 242 236 229 221 214 207 201 193 188 183 179 181 176 175 177 178 178 179 180
289 275 285 291 288 283 283 284 287 294 300 295 286 282 279 276 272 269 265 259 255 252 251 250 242 240 233 227 220 215 206 200 195 192 187 182 177 179 177 176 180 182 182 182
286 296 306 295 293 292 287 283 288 294 304 291 289 285 277 275 273 272 269 263 258 251 249 248 243 238 231 228 220 216 208 200 196 192 187 178 170 171 180 181 182 186 186 184
287 294 298 296 295 299 293 293 292 292 297 295 296 294 289 292 294 296 291 280 266 260 252 250 248 241 232 230 225 221 211 202 195 191 190 183 183 184 189 186 184 186 189 188
292 302 303 298 301 302 289 300 292 284 284 284 276 272 286 301 301 305 304 297 285 277 263 257 250 246 239 233 227 223 211 204 196 192 194 191 192 191 185 186 185 187 190 191
280 287 290 293 301 292 297 299 289 270 265 268 269 260 293 319 313 315 318 321 313 301 285 268 258 248 243 236 232 227 210 206 199 196 196 197 194 191 185 188 186 187 189 191
307 279 289 300 311 307 321 320 307 282 250 268 288 266 287 331 336 330 329 333 335 334 322 301 287 262 246 237 234 228 212 207 203 201 201 201 198 193 192 190 190 188 190 192
312 306 324 320 309 301 308 304 304 304 296 303 294 266 309 348 348 348 349 348 347 344 338 330 316 299 270 252 242 231 215 210 207 204 204 203 203 199 196 194 193 193 195 195
298 295 308 308 301 289 307 307 296 284 283 280 276 283 311 353 358 360 359 355 351 349 344 334 323 314 298 279 254 235 219 212 210 208 205 204 203 202 200 196 197 198 198 195
272 283 294 307 291 258 280 298 293 291 299 290 287 301 330 348 352 352 351 349 347 348 348 343 335 323 313 297 282 245 225 219 216 211 209 206 204 204 201 197 197 198 197 193
247 267 290 295 276 291 296 286 287 284 284 294 297 305 355 345 344 342 342 344 342 342 344 344 339 331 319 309 295 261 233 228 223 218 214 209 207 206 203 201 199 199 196 195
235 261 277 274 270 274 259 271 272 283 285 278 282 285 344 342 337 335 335 339 341 345 344 344 343 341 330 316 307 286 252 237 233 226 219 212 208 206 204 203 201 199 197 195
215 242 287 284 221 223 259 261 264 268 272 269 271 280 332 339 334 335 335 336 338 341 345 348 349 347 341 330 325 312 282 255 245 230 220 216 212 206 207 206 201 198 198 196
240 234 241 267 285 291 280 277 273 264 261 269 265 283 304 321 327 331 333 333 334 337 343 346 348 348 344 337 329 323 312 278 254 238 221 214 216 209 207 205 201 197 196 196
237 253 253 263 273 275 271 274 268 255 255 264 278 284 297 311 315 319 322 327 332 337 342 344 344 344 342 341 337 329 321 310 274 247 231 219 219 215 206 204 202 198 196 197
223 257 269 270 270 272 272 270 264 258 255 258 271 277 293 305 307 311 316 322 328 333 335 336 339 339 338 337 336 332 321 313 294 257 240 227 220 214 206 202 199 197 197 197
220 235 262 273 284 284 266 257 251 250 250 254 265 278 301 307 308 309 313 318 321 324 325 328 331 331 331 329 328 326 321 310 296 271 250 233 219 212 206 199 197 195 195 195
221 223 244 274 283 257 261 230 245 256 257 252 259 279 295 301 303 299 302 312 317 320 320 322 324 324 323 322 321 321 319 316 304 287 261 242 224 215 207 200 199 198 195 195
217 219 236 250 261 271 270 245 232 248 265 247 256 279 295 305 303 294 306 316 315 315 313 314 316 317 317 320 319 318 319 319 309 298 280 263 235 216 208 202 200 198 195 197
207 215 230 236 252 261 266 192 199 242 261 238 254 279 296 307 300 307 326 321 316 315 312 311 314 315 316 318 318 314 316 316 306 298 288 270 245 222 212 207 201 197 196 196
188 209 224 235 246 262 266 203 180 232 267 266 264 278 288 283 284 302 310 310 311 312 313 314 313 314 315 317 315 310 313 309 304 298 289 273 250 229 216 207 200 194 191 188
198 204 212 220 235 251 202 181 216 255 293 275 275 279 284 286 290 297 303 306 309 311 313 315 313 312 314 317 314 308 307 305 305 299 288 277 257 239 221 204 196 189 184 183
215 215 216 216 234 264 209 227 251 270 271 276 278 284 286 287 289 295 298 302 305 308 310 312 311 309 312 314 311 304 306 307 303 299 287 277 265 234 214 201 191 185 182 181
226 218 228 243 253 256 255 258 259 261 269 277 280 284 283 283 288 292 295 298 301 304 307 310 310 308 310 312 309 302 303 303 295 290 288 277 259 238 208 196 188 186 185 180
231 205 228 249 261 269 262 255 257 266 271 273 277 279 280 282 284 288 291 294 297 301 304 305 304 304 306 309 307 307 306 300 289 280 276 264 249 232 207 198 198 195 199 188
226 223 233 250 255 255 267 266 267 269 269 274 281 283 282 280 282 285 287 289 292 295 300 302 301 301 304 308 307 308 306 296 281 273 268 250 226 223 206 177 118 67 157 146
Height
1476 1474 1468 1465 1465 1464 1461 1455 1447 1437 1434 1433 1426 1419 1413 1411 1409 1407 1405 1404 1402 1403 1404 1406 1407 1409 1411 1413 1416 1420 1423 1428 1433 1437 1442 1447 1452 1457 1464 1470 1475 1481 1486 1490
1472 1468 1466 1465 1464 1462 1458 1452 1443 1434 1431 1430 1422 1414 1407 1405 1403 1401 1399 1398 1398 1398 1399 1400 1401 1402 1404 1406 1410 1414 1417 1422 1426 1431 1437 1442 1448 1453 1459 1465 1471 1476 1481 1486
1470 1466 1465 1464 1460 1457 1452 1448 1441 1436 1430 1425 1420 1407 1398 1395 1396 1395 1394 1393 1393 1393 1394 1395 1395 1397 1398 1401 1403 1407 1411 1416 1420 1426 1432 1438 1444 1449 1454 1459 1465 1471 1476 1481
1467 1465 1465 1461 1457 1455 1448 1442 1440 1436 1433 1423 1420 1409 1392 1391 1390 1390 1389 1389 1389 1389 1390 1391 1391 1392 1393 1395 1398 1402 1406 1410 1415 1420 1426 1429 1434 1440 1446 1453 1460 1466 1471 1476
1465 1465 1463 1459 1455 1454 1447 1443 1439 1433 1430 1425 1416 1414 1393 1389 1389 1388 1387 1387 1386 1386 1386 1386 1387 1387 1389 1391 1393 1397 1401 1405 1409 1414 1419 1424 1430 1436 1442 1448 1454 1460 1465 1471
1466 1465 1463 1459 1455 1452 1448 1442 1432 1426 1425 1422 1408 1408 1393 1392 1392 1389 1388 1387 1385 1384 1383 1383 1384 1384 1385 1386 1389 1392 1395 1399 1404 1409 1414 1419 1424 1430 1436 1442 1447 1454 1459 1465
1463 1461 1461 1459 1454 1449 1448 1443 1431 1423 1418 1408 1400 1402 1398 1397 1396 1394 1390 1388 1386 1383 1382 1381 1380 1380 1381 1383 1385 1387 1390 1394 1398 1403 1408 1414 1419 1425 1430 1435 1441 1447 1453 1458
1467 1457 1458 1458 1457 1453 1448 1447 1443 1432 1415 1402 1399 1397 1397 1400 1399 1396 1392 1389 1386 1383 1381 1380 1379 1378 1379 1380 1381 1383 1385 1389 1393 1397 1403 1409 1414 1420 1425 1430 1436 1441 1446 1452
1469 1460 1458 1458 1456 1454 1449 1444 1444 1442 1426 1416 1399 1396 1397 1398 1397 1396 1392 1389 1387 1385 1382 1380 1378 1377 1377 1377 1379 1380 1382 1385 1389 1393 1398 1403 1409 1415 1419 1425 1430 1436 1441 1447
1473 1469 1458 1457 1455 1452 1451 1447 1445 1440 1430 1412 1400 1398 1401 1401 1399 1397 1394 1391 1388 1386 1383 1380 1378 1376 1374 1375 1375 1376 1377 1381 1385 1389 1393 1398 1403 1409 1414 1419 1424 1429 1435 1441
1474 1471 1459 1456 1453 1450 1451 1449 1446 1440 1435 1425 1409 1404 1407 1407 1404 1401 1398 1394 1391 1388 1384 1381 1378 1375 1373 1372 1372 1373 1375 1378 1382 1385 1389 1393 1398 1403 1409 1414 1418 1424 1429 1435
1471 1469 1459 1452 1451 1452 1451 1448 1447 1445 1437 1430 1421 1412 1408 1408 1406 1403 1400 1397 1393 1389 1386 1382 1379 1376 1373 1372 1370 1370 1372 1374 1377 1381 1384 1388 1393 1398 1402 1408 1413 1418 1424 1429
1469 1469 1459 1445 1449 1452 1451 1448 1448 1446 1439 1429 1422 1410 1406 1408 1406 1404 1400 1397 1393 1390 1387 1383 1379 1375 1373 1371 1369 1369 1370 1371 1374 1377 1379 1383 1387 1392 1396 1402 1407 1412 1418 1423
1465 1463 1460 1449 1442 1446 1447 1445 1444 1444 1435 1425 1418 1410 1407 1407 1405 1403 1400 1397 1394 1390 1387 1383 1379 1376 1372 1370 1369 1367 1367 1369 1370 1373 1375 1378 1382 1386 1392 1397 1402 1406 1411 1416
1462 1457 1453 1448 1444 1444 1441 1438 1437 1437 1432 1426 1415 1412 1408 1408 1406 1404 1401 1397 1394 1390 1386 1383 1380 1376 1373 1370 1368 1366 1365 1366 1367 1369 1370 1373 1377 1382 1387 1392 1396 1401 1406 1411
1459 1455 1451 1444 1439 1437 1433 1428 1427 1425 1423 1420 1416 1411 1408 1407 1405 1402 1400 1396 1393 1389 1386 1383 1379 1376 1372 1369 1366 1364 1364 1364 1364 1365 1366 1369 1373 1377 1381 1386 1390 1395 1400 1405
1455 1455 1450 1437 1433 1433 1424 1419 1418 1417 1415 1416 1411 1408 1406 1404 1402 1400 1398 1395 1392 1389 1385 1382 1378 1375 1371 1368 1366 1363 1362 1362 1362 1362 1363 1366 1369 1372 1376 1381 1386 1390 1395 1399
1451 1451 1448 1439 1436 1433 1413 1414 1415 1414 1411 1411 1409 1407 1405 1403 1401 1398 1396 1393 1390 1387 1384 1380 1377 1373 1370 1367 1364 1362 1360 1359 1359 1359 1361 1363 1365 1368 1371 1376 1381 1385 1390 1394
1444 1446 1443 1438 1430 1416 1410 1410 1412 1412 1407 1405 1405 1404 1402 1401 1397 1394 1393 1391 1389 1386 1383 1379 1375 1371 1368 1365 1362 1360 1358 1356 1356 1356 1357 1359 1361 1364 1368 1371 1375 1380 1384 1389
1440 1441 1440 1435 1431 1416 1403 1407 1409 1411 1404 1401 1401 1401 1400 1398 1394 1390 1390 1388 1386 1383 1380 1376 1373 1369 1366 1363 1360 1358 1355 1354 1353 1353 1354 1356 1358 1360 1363 1367 1371 1376 1380 1385
1437 1436 1434 1429 1424 1408 1403 1406 1409 1408 1399 1399 1399 1398 1398 1396 1394 1391 1388 1385 1382 1380 1376 1373 1370 1366 1364 1361 1358 1355 1353 1352 1352 1352 1352 1353 1354 1357 1360 1364 1368 1372 1376 1380
1422 1423 1425 1422 1419 1408 1400 1404 1403 1398 1398 1397 1396 1396 1395 1393 1390 1388 1385 1382 1379 1376 1373 1370 1367 1363 1361 1359 1356 1353 1352 1351 1350 1349 1349 1350 1351 1354 1357 1360 1364 1368 1372 1376
1412 1409 1407 1408 1401 1396 1398 1397 1397 1397 1396 1394 1393 1392 1391 1389 1386 1384 1381 1379 1376 1373 1369 1367 1364 1360 1358 1356 1354 1351 1349 1348 1347 1347 1347 1347 1349 1351 1353 1356 1360 1364 1368 1372
1404 1406 1405 1403 1395 1394 1394 1394 1393 1393 1392 1391 1390 1389 1387 1385 1382 1380 1377 1374 1372 1369 1366 1363 1360 1357 1354 1352 1351 1349 1347 1346 1345 1344 1344 1345 1346 1347 1350 1353 1356 1360 1364 1367
1395 1399 1397 1394 1390 1390 1388 1389 1388 1388 1387 1386 1385 1384 1382 1380 1378 1375 1373 1370 1367 1365 1362 1359 1356 1353 1351 1349 1347 1346 1344 1343 1342 1342 1342 1343 1343 1345 1347 1350 1353 1357 1360 1363
1388 1389 1389 1384 1383 1384 1382 1383 1383 1382 1381 1381 1379 1378 1376 1375 1373 1371 1368 1365 1363 1360 1358 1355 1353 1350 1347 1345 1343 1342 1341 1341 1340 1340 1340 1340 1341 1343 1345 1347 1350 1354 1357 1360